Wind_Speed
19 20 20 21 23 24 25 27 28 29 30 31 31 32 32 33 34 34 35 35 35 35 36 36 37 37 38 38 38 39 39 40 41 42 43 43 44 46 47 49 49 47 44 39 34 32 30 28 25 22 19 17 15 13 10 8 6 6 7 8 9 11 14 16 17 18 21 20 19 22 24 27 29 31 35 33 30 30 28 30 31 31 30 29 27 26 25 23
18 19 20 21 22 23 24 26 27 29 30 31 31 31 31 32 33 33 34 35 35 35 35 36 36 36 37 37 37 37 38 39 40 41 42 43 43 45 46 48 49 48 47 44 39 36 34 31 28 25 22 19 18 16 11 7 5 3 2 4 6 9 12 16 18 19 20 15 15 22 23 25 25 26 31 31 30 28 25 27 29 30 31 29 28 26 25 23
18 19 20 21 21 23 24 26 27 29 30 32 32 32 31 30 31 32 33 34 35 35 35 35 35 35 36 36 36 36 37 38 39 40 41 42 43 44 45 47 48 48 49 48 45 40 37 34 31 28 25 23 21 20 16 11 8 5 3 2 4 8 10 14 17 18 18 15 16 21 22 23 24 24 27 29 30 28 25 27 29 30 31 30 28 26 24 23
19 20 21 22 23 24 25 26 27 29 30 31 32 33 33 31 31 31 32 33 34 34 34 34 35 35 35 35 35 35 36 37 37 38 40 41 42 43 44 46 47 48 48 49 48 45 41 37 34 31 28 26 25 24 21 17 12 9 7 5 4 6 9 11 14 16 18 18 18 18 17 18 20 21 23 27 30 30 29 31 33 33 32 31 28 26 25 24
20 21 22 23 24 25 25 26 27 29 30 31 31 32 33 32 32 32 32 33 34 34 34 34 34 34 34 34 34 34 35 35 36 37 38 40 41 41 43 45 46 47 48 49 49 48 45 40 37 34 31 29 28 27 24 21 17 12 10 9 7 6 7 9 12 14 15 16 15 15 14 15 18 20 22 25 28 31 34 36 36 33 32 30 29 26 25 24
19 20 21 22 23 24 25 26 27 28 29 30 30 31 31 32 32 32 33 33 34 34 34 34 33 34 34 34 33 34 34 34 35 36 37 38 40 40 41 43 45 46 47 48 49 50 48 44 40 36 34 32 31 30 27 24 21 17 13 11 10 9 7 8 9 11 13 13 14 15 17 17 17 17 19 24 28 32 35 36 35 33 31 30 29 26 25 25
19 20 21 21 22 23 24 26 27 28 29 30 30 30 31 31 32 32 33 34 34 34 34 34 33 33 33 33 33 33 33 34 34 35 36 37 38 39 40 41 43 45 45 46 48 49 49 47 43 39 36 34 32 31 30 27 24 20 17 13 11 11 9 8 8 9 11 12 14 15 17 18 17 15 17 22 27 31 32 33 34 34 32 30 28 26 25 24
20 20 21 22 23 23 24 25 27 28 29 30 31 31 31 31 32 32 33 34 35 34 34 34 33 33 33 33 33 32 32 33 33 34 34 35 36 37 38 39 41 43 44 45 46 47 49 49 47 43 39 36 34 32 31 30 27 23 19 16 13 11 10 8 7 8 10 12 14 15 16 16 18 18 19 21 25 29 30 30 32 33 31 30 28 26 25 24
20 21 22 23 24 24 25 26 27 28 29 30 31 31 31 31 31 32 33 34 35 35 34 34 34 33 33 33 33 32 32 32 32 32 33 33 34 35 36 37 39 41 43 44 44 46 48 49 48 46 42 38 36 34 32 31 29 26 22 19 15 12 11 9 7 7 8 12 15 16 16 14 15 20 20 21 23 26 28 29 30 31 31 30 28 27 25 24
21 22 23 24 25 25 25 26 27 28 29 30 30 31 31 31 31 32 33 34 35 35 34 34 34 33 33 34 34 32 31 31 31 31 32 32 32 32 34 35 37 38 41 42 43 45 46 47 48 48 46 42 38 35 33 32 31 28 25 21 17 14 11 9 8 6 5 8 12 15 17 17 17 20 21 22 23 25 27 28 29 30 30 29 28 26 25 24
22 23 24 24 25 26 26 26 26 27 28 29 29 30 31 31 32 32 32 33 34 34 33 33 33 33 33 34 34 33 31 31 31 31 31 30 30 30 31 33 35 36 39 41 42 44 45 46 47 48 47 46 42 38 34 32 31 30 27 23 19 15 12 9 8 7 5 5 7 9 13 16 16 17 19 21 22 23 25 26 27 28 28 29 28 26 25 25
23 24 25 25 26 28 29 28 27 27 29 29 29 29 30 30 31 31 32 32 33 33 32 33 33 33 33 33 34 33 32 31 30 30 30 30 29 29 29 31 33 35 36 39 41 43 44 44 46 47 47 47 45 41 37 33 32 30 28 26 22 18 15 11 8 7 6 4 4 5 7 10 10 12 17 19 20 22 23 24 24 25 26 27 27 26 25 25
23 24 25 26 27 29 30 31 30 29 30 30 30 30 30 30 30 31 31 32 33 32 31 32 32 32 33 33 33 33 32 31 30 30 30 29 29 28 28 29 31 32 35 37 39 41 42 44 44 46 46 46 46 44 40 36 33 30 29 27 24 21 18 14 10 7 6 5 5 5 6 7 8 12 15 17 19 22 22 22 22 23 24 25 25 25 25 25
23 24 25 26 27 29 31 32 32 31 31 31 31 31 31 30 30 30 31 31 32 32 31 31 31 31 32 32 33 33 32 31 30 30 30 29 29 28 28 28 29 30 32 34 36 38 40 42 43 43 44 44 44 44 42 39 35 31 29 28 26 23 18 15 12 10 7 5 6 6 8 8 7 12 14 17 20 22 23 22 20 19 20 22 24 24 25 24
24 24 26 27 28 29 30 33 34 33 32 32 32 32 32 32 31 31 31 31 32 32 31 31 31 31 31 32 32 32 32 31 31 31 30 29 29 28 28 27 28 29 30 32 34 36 38 39 41 42 42 42 43 43 43 41 38 35 31 29 27 25 20 17 14 12 9 6 4 4 9 11 10 14 14 17 21 22 23 21 17 16 17 20 23 24 24 23
24 25 26 28 29 29 30 32 34 35 34 34 34 34 33 33 33 32 31 31 32 32 31 30 30 30 30 31 31 32 32 31 31 31 30 30 29 28 28 27 27 27 28 30 31 33 35 36 38 39 40 41 41 41 41 41 40 38 35 31 27 24 22 20 17 13 11 8 7 4 4 10 13 15 14 16 20 21 22 20 15 14 15 19 21 23 23 22
25 26 27 28 29 30 31 32 34 35 35 35 35 35 35 35 34 33 33 32 32 32 31 30 30 30 30 30 30 31 31 31 31 30 30 30 29 29 28 27 26 27 27 28 29 31 32 34 35 37 38 39 39 39 40 40 41 39 37 34 30 26 23 21 19 15 12 9 7 5 1 5 10 13 14 15 18 19 20 20 16 14 15 18 21 22 22 22
25 26 27 27 29 30 31 32 34 35 36 36 36 36 36 36 36 35 34 33 33 32 31 30 30 30 30 30 29 30 30 30 30 30 30 30 30 29 28 27 26 26 27 27 28 28 30 31 32 34 35 37 37 36 37 38 39 39 38 37 34 31 27 22 19 16 14 11 8 6 3 2 6 11 14 14 16 17 19 19 17 16 16 19 21 22 22 22
25 25 26 27 28 29 31 32 34 36 37 37 37 37 37 37 37 36 35 34 34 33 32 31 30 30 30 30 29 29 29 29 30 30 30 30 30 30 28 27 26 26 26 27 27 27 28 29 30 31 32 34 35 35 35 35 36 37 37 37 36 35 31 27 22 17 14 12 10 7 4 1 3 7 12 15 15 17 17 17 16 16 17 19 21 21 22 22
25 26 26 27 28 28 30 31 33 35 37 38 39 38 38 38 38 37 36 35 35 34 33 31 30 30 29 30 29 28 28 29 29 29 30 29 29 30 28 27 26 25 26 27 27 27 27 28 28 29 30 31 33 33 33 33 34 35 36 36 35 35 34 31 27 22 17 13 10 8 5 2 1 4 9 13 16 17 18 17 17 16 17 20 22 22 22 22
25 26 26 26 26 26 28 30 31 33 35 37 39 40 40 39 39 38 38 37 36 35 34 32 31 30 29 30 29 28 29 28 29 29 29 29 29 29 27 27 26 24 25 26 27 27 27 27 27 28 28 29 30 31 32 32 33 33 33 33 33 33 33 32 30 28 24 19 13 9 5 3 1 4 7 10 13 16 17 18 18 18 18 20 23 23 22 22
26 25 25 25 25 24 25 27 29 30 32 34 37 40 41 41 41 40 39 38 37 35 34 33 32 30 29 29 29 29 29 29 29 29 29 28 28 27 27 27 25 23 24 25 26 26 26 26 27 27 27 27 28 29 30 31 32 32 32 32 32 31 30 30 29 29 28 25 19 13 7 3 0 3 6 8 11 14 16 17 18 19 19 20 22 23 23 22
25 25 25 24 24 24 24 25 27 27 30 32 34 37 40 41 43 43 41 39 38 36 35 34 33 31 30 29 30 30 30 29 29 29 29 28 27 26 27 27 24 22 23 23 24 25 25 26 27 27 27 26 26 27 29 30 31 31 31 31 31 30 29 28 27 26 26 26 23 19 13 8 2 2 5 7 9 12 14 16 17 18 19 20 22 24 24 24
27 27 27 27 26 26 25 26 27 28 29 31 32 35 38 40 43 44 43 42 39 37 36 35 34 32 31 30 30 30 30 30 30 30 29 28 27 26 26 26 23 22 22 22 23 24 24 25 26 27 26 26 25 25 27 28 30 30 30 30 30 30 29 27 25 24 24 23 22 21 18 15 10 4 2 6 9 11 13 14 16 18 20 21 23 24 25 26
34 34 34 34 33 32 30 29 28 29 30 31 32 34 36 39 42 43 45 44 42 39 37 36 36 34 32 31 31 31 31 31 31 30 29 28 27 26 26 24 23 22 21 21 21 22 23 24 25 26 26 26 26 25 26 27 29 29 29 29 29 29 29 27 26 24 23 22 21 20 19 19 17 13 8 2 4 8 12 14 16 17 19 21 23 25 26 27
42 42 41 40 39 38 37 37 35 34 33 33 33 34 35 38 40 42 44 46 44 42 40 38 37 36 34 33 32 32 31 31 31 31 29 29 27 26 25 24 23 22 21 20 20 21 22 23 23 25 26 26 26 25 26 27 27 28 28 28 28 28 28 27 26 24 22 22 20 19 19 18 19 18 16 12 8 3 5 9 13 16 19 21 23 25 26 28
49 47 46 46 45 43 43 44 42 40 38 36 36 35 35 36 38 41 43 45 46 45 43 41 39 38 37 36 35 33 33 33 33 31 30 29 28 26 24 25 25 23 22 21 20 20 21 22 22 24 25 25 26 26 26 26 27 27 27 27 27 26 26 26 26 24 22 21 20 19 18 17 17 18 18 17 15 12 8 5 6 10 14 18 21 24 26 28
52 52 51 51 51 49 47 47 46 44 42 40 39 38 37 37 38 40 41 43 46 47 46 44 42 41 40 39 38 36 35 35 34 33 31 30 30 27 25 25 26 25 23 21 20 20 20 21 22 22 24 24 25 26 26 26 26 26 26 26 26 25 24 25 25 25 23 22 21 20 18 17 15 16 16 16 15 15 13 11 8 7 8 11 15 20 24 27
55 55 55 54 54 54 53 51 50 49 46 44 43 41 40 40 40 40 40 42 45 47 47 47 46 44 43 43 41 38 37 37 36 35 33 32 31 29 26 26 27 27 24 22 21 20 20 21 21 22 23 23 24 25 26 26 26 26 25 25 25 24 24 23 23 23 24 23 23 22 21 18 15 13 14 13 13 13 13 12 10 9 9 9 11 14 18 23
59 59 59 58 57 57 57 55 53 53 51 49 47 44 43 43 43 43 42 43 44 45 47 48 48 48 46 44 43 41 39 38 38 37 36 34 33 31 27 27 28 28 25 22 21 21 21 21 21 22 22 23 24 25 25 25 25 25 25 24 24 24 23 22 22 22 22 23 24 24 25 23 18 14 13 12 12 12 11 11 11 10 9 9 10 11 12 16
64 63 62 62 61 60 60 59 57 56 55 53 51 48 46 44 44 45 44 44 45 44 47 49 49 49 48 47 45 44 42 40 39 39 38 37 36 34 30 28 29 28 26 23 22 22 22 22 22 22 22 22 23 25 25 25 24 25 24 24 24 24 23 23 21 20 20 22 23 23 24 25 24 20 16 14 13 13 12 12 11 10 9 10 10 11 11 13
67 66 65 65 66 65 64 62 61 60 59 57 54 51 50 46 44 46 48 49 47 46 48 50 50 50 50 50 49 46 44 42 41 40 40 39 38 36 33 30 30 29 27 25 23 23 23 23 23 22 22 22 23 24 25 24 24 25 25 25 25 25 24 23 22 20 19 20 22 22 22 24 25 24 22 20 17 15 16 15 14 13 12 11 11 11 12 13
69 68 67 67 69 70 68 66 66 64 63 62 58 55 54 50 46 50 54 54 52 51 50 50 51 53 52 51 51 49 47 45 43 42 41 41 40 39 36 33 31 30 28 26 24 24 25 25 25 24 23 23 23 23 24 24 24 25 25 26 26 26 25 25 24 22 19 19 20 21 21 22 23 24 25 25 22 18 17 17 17 17 16 15 14 13 13 14
71 70 70 70 71 73 72 70 69 68 67 66 64 60 56 51 51 56 59 58 56 56 53 51 51 54 54 52 53 52 50 48 46 44 43 42 42 41 38 34 32 31 29 28 26 25 26 26 26 24 24 24 23 22 23 23 24 25 25 26 27 27 27 25 25 25 22 20 21 21 21 21 22 23 25 26 26 24 20 18 17 18 18 18 18 17 16 16
75 73 73 73 74 75 75 73 71 71 70 69 68 64 58 54 55 59 61 61 60 60 59 57 55 54 55 54 54 54 52 51 49 47 45 44 43 43 41 37 34 33 31 30 28 27 27 28 27 25 24 24 23 22 22 22 23 24 25 26 27 27 27 26 26 27 25 23 23 23 23 22 21 22 25 27 28 28 27 23 19 17 18 19 20 20 20 19
78 77 76 76 77 78 77 75 74 74 74 72 70 65 61 61 62 62 62 63 64 64 64 63 61 59 57 56 54 55 54 53 52 50 47 46 45 45 44 40 36 35 34 32 30 29 29 29 28 27 25 24 23 23 23 23 23 23 24 25 26 26 26 26 25 27 26 24 25 26 26 24 22 22 24 26 29 30 30 29 26 22 18 18 19 20 22 22
80 80 79 79 79 80 78 77 78 77 77 76 71 65 64 65 67 67 67 67 67 67 67 66 65 62 58 57 56 56 55 54 53 51 49 48 47 46 46 44 40 37 36 34 31 30 31 30 30 29 27 25 24 24 24 24 23 24 24 25 26 26 26 25 24 26 27 25 25 27 28 28 24 22 23 25 28 30 31 32 32 30 25 21 19 20 22 24
82 81 81 80 80 81 80 80 79 78 79 77 72 68 68 68 68 70 72 72 71 70 69 69 68 64 59 59 59 57 57 54 52 52 52 50 48 47 47 47 44 41 37 35 33 32 32 32 32 31 28 26 25 26 26 25 25 25 25 26 27 26 25 25 24 24 25 25 25 27 30 32 28 24 23 25 27 29 30 32 34 35 33 28 23 22 22 24
83 83 82 81 81 81 82 82 80 80 80 77 73 71 71 71 72 73 74 74 74 74 72 72 72 68 63 61 61 59 58 56 53 53 53 51 49 48 48 48 48 46 41 37 34 34 34 35 34 33 31 28 27 27 27 27 27 27 27 27 28 28 27 25 24 24 25 25 26 27 30 35 33 27 26 27 28 29 29 31 34 36 36 34 29 25 24 24
83 83 83 82 82 82 82 83 83 82 81 78 76 75 74 73 74 76 77 78 78 78 76 75 75 73 67 63 62 60 60 59 55 54 53 51 50 49 48 48 49 49 46 41 38 36 35 36 36 34 33 31 29 29 29 29 29 29 29 29 29 29 29 27 25 25 26 26 27 28 29 35 37 31 29 30 30 30 29 30 33 35 37 38 36 32 29 27
84 84 83 83 84 84 84 85 86 85 83 81 79 79 77 76 77 79 81 82 82 82 81 79 79 78 74 68 64 62 62 62 59 56 54 52 52 51 49 48 48 50 50 46 43 41 39 38 37 35 35 35 33 32 32 32 32 32 32 31 31 31 30 29 27 26 27 27 28 29 29 34 39 34 32 34 33 31 31 31 33 35 37 39 40 38 35 32
87 87 87 87 89 89 89 89 90 89 88 85 83 82 81 81 82 83 84 86 86 86 85 85 83 82 79 75 69 66 64 64 62 59 57 55 54 53 51 50 50 51 53 50 47 45 44 41 39 38 38 37 36 35 35 36 36 35 35 35 34 34 33 32 30 28 28 28 30 31 30 34 40 37 34 36 37 35 33 33 35 36 38 40 42 42 40 36
91 91 92 92 94 94 95 94 93 93 92 91 89 88 87 86 86 86 88 89 89 89 89 88 87 85 82 79 75 70 66 65 64 62 59 57 57 55 53 53 51 51 54 53 49 48 47 45 43 41 41 40 39 39 39 39 39 38 38 38 38 37 36 35 33 32 31 29 31 33 32 34 40 39 38 39 40 39 37 36 37 39 40 42 43 44 43 40
97 97 98 100 101 101 101 100 98 97 97 96 95 94 92 91 90 90 90 90 91 92 91 91 90 86 83 81 77 72 68 66 65 64 62 60 58 57 56 54 53 52 54 55 53 51 49 48 47 46 45 43 42 42 42 42 42 41 41 41 40 40 40 38 36 35 34 34 35 35 34 37 40 41 41 41 42 41 40 39 39 41 42 43 45 47 47 44
104 105 106 107 108 108 108 106 105 104 103 102 101 100 98 97 96 95 95 95 96 96 96 94 92 88 84 81 78 74 69 67 65 64 63 62 61 60 59 57 55 55 55 55 55 53 51 51 51 50 49 47 46 46 45 44 45 45 44 44 43 42 42 42 39 37 38 38 38 37 38 40 41 41 42 43 43 42 42 41 41 41 43 44 46 49 50 48
112 113 113 114 114 114 113 111 111 110 109 108 108 106 105 104 103 102 102 102 101 100 100 98 95 92 88 83 79 74 69 66 64 62 61 62 61 61 61 60 58 58 57 56 56 55 54 54 53 52 52 51 50 49 48 47 48 48 47 47 46 45 45 44 42 41 41 41 40 41 42 41 42 42 43 45 44 42 42 43 42 42 42 44 47 50 52 52
120 120 120 121 121 121 119 118 117 117 116 116 116 114 112 110 109 107 106 105 104 103 102 101 98 96 91 84 77 73 68 65 64 61 60 61 61 61 61 61 60 59 59 58 58 56 56 55 55 55 55 54 54 53 51 50 49 50 50 49 49 48 47 47 46 45 45 42 41 45 45 43 43 45 45 45 44 43 44 44 44 43 42 43 47 51 54 54
128 128 128 128 128 127 125 124 124 123 123 122 120 117 114 112 110 110 108 108 108 107 106 104 101 98 92 85 78 73 69 66 65 63 61 61 61 61 62 62 61 60 59 58 58 57 57 58 57 58 57 56 57 56 53 52 51 51 51 51 51 50 50 50 49 48 47 44 44 47 47 44 45 47 46 46 45 45 45 46 46 45 43 43 46 51 55 56
132 132 131 131 131 130 127 126 125 124 123 122 120 118 115 112 111 111 112 112 112 111 109 106 103 98 92 85 81 77 72 68 66 64 63 63 62 61 62 62 62 62 61 60 59 58 59 60 59 59 58 57 57 55 54 54 54 52 52 52 51 52 52 52 51 50 49 47 47 49 48 46 47 49 48 47 47 47 46 47 48 47 44 44 46 51 56 58
129 129 128 128 127 126 124 123 123 122 121 120 119 117 115 112 111 111 113 114 114 113 110 106 100 95 88 82 79 77 73 70 68 66 66 66 64 63 62 62 62 63 62 61 60 59 59 59 57 56 57 55 54 55 55 56 56 55 54 52 52 54 55 54 52 52 51 50 51 51 49 48 50 50 49 49 49 49 48 48 49 48 45 45 47 51 56 59
123 123 122 122 120 119 119 119 119 119 118 117 116 115 113 112 109 109 111 111 111 110 106 101 96 91 84 79 77 75 74 72 71 70 68 67 67 65 64 62 62 62 61 61 60 58 57 57 55 56 56 55 55 58 57 57 58 56 54 53 54 56 57 55 54 53 52 52 53 52 50 51 52 52 52 52 51 51 51 50 49 48 46 45 48 52 57 59
116 115 115 115 113 112 112 113 115 114 112 110 110 110 110 108 105 105 107 105 103 102 99 94 90 86 80 77 76 76 75 74 73 72 70 68 68 68 66 65 64 63 62 62 62 59 57 56 57 58 58 58 59 61 61 62 60 56 54 54 56 58 57 56 55 54 54 54 53 52 52 53 54 54 54 54 54 55 54 52 51 48 46 46 49 52 56 60
Wind_Direction
22 22 22 21 20 18 17 16 15 13 12 11 11 10 10 11 11 11 11 11 12 13 13 14 16 17 17 18 17 17 18 19 18 18 17 17 19 21 23 22 22 23 22 20 18 18 18 15 12 9 9 13 14 7 356 345 330 285 241 212 205 204 209 208 199 201 205 205 208 214 219 220 225 228 226 224 222 222 222 219 219 218 216 216 216 217 220 218
16 16 16 15 14 12 11 11 10 9 8 6 6 7 7 8 9 9 9 9 9 10 11 12 13 15 16 17 17 16 17 18 19 18 17 17 18 21 23 23 22 22 23 23 22 21 21 20 17 15 15 19 24 24 20 17 14 350 253 201 194 193 201 198 190 194 193 186 199 209 212 213 217 224 224 222 221 220 221 222 220 219 217 214 214 215 217 214
5 6 7 7 7 6 5 4 4 4 3 2 1 1 3 5 6 7 7 7 7 8 9 9 10 12 14 15 16 16 16 17 18 18 17 17 17 19 22 23 23 22 23 24 25 24 24 23 20 19 20 24 30 32 33 36 48 58 65 159 184 191 194 194 190 187 181 178 193 205 208 208 211 218 219 217 218 214 214 222 222 219 218 214 212 214 214 211
357 357 358 358 359 359 359 359 358 358 358 358 357 356 357 359 2 4 4 4 4 5 6 7 7 9 11 13 14 14 15 16 16 18 18 17 17 19 22 23 23 23 24 25 26 27 26 25 23 22 24 28 33 36 37 39 48 69 82 100 143 179 181 181 184 180 180 184 187 195 200 204 211 214 213 212 214 210 206 216 219 216 215 213 212 212 212 209
350 350 351 351 351 352 352 352 352 352 352 353 353 352 352 355 358 1 2 2 1 2 3 4 5 6 9 11 12 12 14 15 15 17 19 18 18 18 21 23 24 23 24 26 27 28 28 27 25 24 26 30 34 37 38 39 43 56 75 91 104 131 159 164 171 173 174 176 176 182 184 194 206 208 208 206 209 211 207 210 215 214 212 211 211 212 213 208
342 343 343 344 344 344 345 345 346 346 347 349 350 349 350 351 354 357 360 1 360 358 360 1 2 3 5 8 9 10 11 13 14 15 18 19 19 18 20 23 24 24 24 26 28 29 30 30 28 27 27 30 34 37 39 40 42 46 56 74 88 97 115 136 150 158 161 160 165 175 177 186 196 198 205 203 204 211 211 210 213 213 212 210 210 212 213 210
334 335 336 336 337 337 338 339 341 342 344 346 347 348 348 349 351 353 356 359 358 357 356 358 359 360 2 4 6 8 9 11 13 13 15 19 19 18 19 22 24 24 24 26 29 30 31 31 31 29 29 31 34 36 39 41 43 45 48 56 73 87 94 110 128 142 151 155 162 175 178 181 184 183 197 202 203 208 211 210 210 212 211 210 210 212 213 212
328 329 330 331 331 333 334 336 337 340 343 345 346 348 348 348 348 350 352 355 356 355 354 355 356 357 358 0 3 5 7 8 11 12 13 17 20 19 18 20 24 25 24 26 29 31 31 32 32 31 31 32 34 36 38 41 43 45 46 49 61 80 90 99 117 137 151 155 160 174 177 177 183 185 196 203 203 205 208 208 208 209 209 208 209 211 213 210
327 329 330 331 331 331 333 335 337 339 342 344 346 347 347 347 347 348 349 352 354 354 352 352 353 354 355 357 360 3 4 6 8 9 11 15 19 20 18 19 23 25 25 25 27 31 32 33 33 33 33 33 34 35 37 40 44 45 46 46 52 69 87 96 110 135 155 160 163 176 173 167 186 195 202 206 203 203 204 205 205 205 206 204 206 210 212 208
330 331 333 334 334 334 335 337 337 339 342 344 345 346 346 346 346 347 348 349 351 352 351 350 351 352 353 354 357 360 1 3 5 7 8 12 16 19 19 18 20 24 25 24 25 29 32 34 34 33 34 34 34 35 36 39 43 46 47 47 48 57 76 91 104 125 148 170 174 180 175 171 189 200 207 210 203 201 201 201 202 201 202 202 204 208 209 207
333 333 334 335 335 334 334 335 337 338 339 341 343 343 344 344 344 345 346 347 348 350 349 348 349 350 350 352 354 356 357 359 2 4 6 8 11 15 18 18 19 22 25 25 25 27 30 33 35 35 34 34 35 35 36 37 40 44 48 50 49 49 59 77 94 114 127 176 184 180 185 190 201 206 209 212 204 199 198 198 198 199 200 201 204 206 206 206
340 340 340 340 339 336 334 334 336 337 338 339 339 340 341 342 342 344 345 344 346 348 348 347 348 348 348 349 351 352 353 355 359 1 3 5 7 11 15 17 18 20 23 25 25 26 28 31 34 36 36 35 35 35 36 36 38 41 45 49 51 50 48 53 74 101 115 152 171 159 187 201 213 216 213 211 202 197 195 194 197 199 201 203 204 204 203 205
344 344 344 344 343 340 337 336 338 339 339 339 339 339 340 340 341 342 343 343 344 346 346 345 346 346 346 346 347 349 350 352 355 358 0 1 3 7 10 14 17 18 21 24 26 26 26 29 33 36 36 36 36 36 36 37 38 39 42 46 50 54 48 39 50 72 95 121 127 141 174 180 202 217 213 205 196 192 191 192 198 202 205 208 208 205 204 205
345 345 345 346 345 343 339 337 338 341 340 339 339 339 338 339 340 341 341 341 341 344 344 343 344 344 344 344 345 346 348 349 351 355 357 358 360 2 6 10 14 17 19 22 25 26 26 27 30 34 36 37 37 37 38 38 38 38 40 43 46 54 54 44 47 51 59 94 119 145 155 147 203 222 206 197 192 189 189 192 199 207 212 213 211 209 207 206
343 344 345 346 346 346 343 339 338 339 341 339 339 338 338 338 339 340 340 340 340 341 342 341 341 342 342 342 343 344 346 346 348 351 354 356 357 359 2 6 10 14 17 20 23 25 26 27 28 31 34 36 36 37 38 38 39 39 40 41 43 49 53 52 52 51 49 55 77 139 154 149 198 220 200 192 191 189 191 194 202 215 219 214 211 210 208 207
337 339 341 343 344 345 346 343 340 340 341 340 338 338 337 337 338 339 339 339 339 339 340 339 338 339 340 340 341 342 344 344 345 348 352 354 355 356 359 2 6 9 13 17 20 23 25 26 27 29 31 34 36 36 37 38 39 40 41 42 43 44 48 51 51 52 52 47 48 56 163 168 193 204 193 191 191 192 196 199 211 222 219 212 208 210 210 209
332 335 337 339 340 342 343 343 341 340 342 341 339 338 337 337 338 338 338 338 338 338 338 337 335 336 337 338 339 340 342 342 342 346 350 353 353 354 356 359 3 6 8 12 16 20 22 24 25 27 29 32 34 36 36 37 38 39 41 42 43 43 45 48 48 49 51 49 50 54 113 193 199 195 187 190 193 196 200 205 215 221 217 211 209 212 215 213
327 330 333 335 336 337 339 339 338 337 339 340 340 339 337 336 337 337 337 337 336 336 336 335 333 333 334 335 337 338 339 341 340 343 348 351 352 352 354 357 0 3 4 6 11 17 20 21 23 25 27 29 32 34 36 36 37 37 39 41 42 44 44 45 45 45 48 48 49 54 65 167 204 200 193 193 194 197 202 209 218 222 219 215 212 214 217 218
321 325 327 330 331 333 334 336 335 334 335 336 337 337 337 336 336 336 336 336 335 334 335 333 331 331 331 332 334 336 338 339 339 341 345 348 350 350 351 354 358 1 3 3 7 12 16 18 19 22 25 27 28 31 34 35 35 35 36 38 39 43 44 45 44 44 44 45 45 47 49 79 189 205 206 206 205 205 208 215 222 226 225 221 219 218 218 220
315 318 321 324 327 329 330 330 331 330 331 333 333 334 335 335 335 334 334 334 334 333 333 332 330 329 329 329 331 333 335 337 337 338 341 345 348 349 349 351 354 359 2 2 4 8 12 15 16 18 21 24 26 28 30 32 33 33 34 35 36 38 41 43 44 45 45 45 46 48 45 41 203 214 215 216 217 218 220 224 228 229 228 224 223 222 219 220
309 312 316 320 324 328 328 328 328 328 329 330 330 330 331 331 332 333 333 332 332 331 331 331 329 328 327 327 328 329 331 333 334 335 338 341 345 347 347 347 350 356 2 3 2 5 8 12 13 14 17 21 23 24 26 28 29 30 31 32 33 35 37 38 40 42 44 46 48 51 52 44 254 229 226 224 226 228 230 233 235 237 233 227 225 225 222 220
302 306 311 315 319 323 326 329 330 330 331 330 330 330 328 328 328 329 331 331 330 328 328 329 328 326 325 324 325 326 328 330 331 333 335 338 341 345 345 344 345 352 1 4 2 2 5 8 11 11 13 17 20 21 21 23 24 26 28 29 30 32 33 35 36 38 41 43 44 46 48 47 339 243 235 231 231 232 234 235 237 239 237 232 229 228 227 224
294 297 301 306 311 316 319 323 326 328 329 329 330 330 327 326 326 325 327 328 328 326 324 325 326 325 323 321 322 323 324 327 329 330 332 335 338 341 342 341 341 348 358 3 2 0 2 4 6 8 10 12 16 17 17 18 19 22 24 26 27 28 29 31 33 34 37 40 41 41 41 42 38 251 241 238 237 234 234 234 233 233 234 234 232 231 230 228
287 289 294 297 302 307 310 314 317 319 322 324 327 328 326 326 325 323 323 324 325 324 321 322 323 322 321 320 319 320 322 323 325 327 329 332 336 337 339 338 338 344 354 1 1 358 358 360 1 4 6 8 10 12 13 13 14 17 20 22 24 24 25 27 28 29 31 35 39 38 35 34 37 34 249 235 237 236 235 235 232 229 228 229 231 232 232 230
285 288 292 296 299 302 304 306 309 311 314 318 321 323 325 326 325 322 320 320 320 320 319 319 319 318 318 317 316 317 318 319 321 324 325 329 333 335 336 336 336 340 349 356 358 356 356 356 356 358 360 2 4 6 7 9 10 11 14 17 20 22 23 23 23 23 23 26 32 36 32 27 27 30 28 2 243 233 231 232 232 231 228 226 226 228 231 231
287 288 292 294 295 297 299 300 303 306 309 311 313 315 318 322 324 322 319 317 316 315 316 315 315 314 314 314 313 313 313 314 316 319 320 324 329 333 332 331 332 336 343 351 354 353 352 352 352 352 354 356 359 0 2 3 5 7 9 11 15 18 20 22 22 21 19 18 20 29 33 26 21 22 21 17 8 327 250 234 230 229 229 227 226 226 227 230
289 290 291 291 291 292 295 296 298 302 304 306 307 309 312 316 319 321 321 318 313 311 311 312 311 309 309 310 310 310 309 309 311 313 315 317 323 328 328 326 328 332 338 345 348 349 348 348 348 347 347 350 353 354 356 358 0 2 4 6 9 13 17 19 21 21 20 16 12 17 27 29 20 16 16 13 11 5 353 320 265 241 233 230 227 226 226 228
289 290 290 289 290 291 293 293 293 295 297 299 301 305 308 309 312 316 320 320 314 311 310 307 306 306 306 306 307 307 306 305 306 307 309 310 315 321 322 321 323 326 331 337 341 343 343 342 344 343 341 344 347 348 350 352 354 357 359 0 3 7 10 13 17 20 21 19 15 11 17 27 24 15 11 8 7 4 1 355 338 306 272 248 236 229 226 226
287 288 288 288 289 290 292 292 291 291 293 294 296 300 303 305 308 311 315 315 313 314 312 306 303 303 303 303 304 305 304 304 303 302 303 304 307 314 316 315 318 321 324 330 333 336 338 337 338 339 337 338 340 343 345 347 349 351 353 354 356 358 3 6 9 13 18 20 20 17 14 21 25 16 9 5 1 359 357 356 351 334 312 287 264 247 236 230
285 286 287 287 288 288 289 290 290 290 291 292 294 295 298 302 305 308 311 309 308 314 313 308 303 300 299 299 300 302 302 301 301 299 300 300 302 307 310 309 312 315 318 323 327 329 331 332 332 334 334 333 334 337 340 342 343 344 345 347 349 352 355 358 1 4 9 14 18 21 20 21 22 15 4 358 352 349 346 346 349 343 324 306 289 272 256 244
283 284 285 285 285 285 285 287 288 288 287 289 290 290 292 296 302 307 307 302 304 309 311 311 307 300 296 296 296 297 299 299 298 298 297 297 298 302 305 305 307 310 314 317 321 322 323 325 326 329 329 329 331 332 335 338 339 338 339 340 342 345 347 349 353 355 358 5 10 16 21 23 23 19 10 359 346 338 334 333 337 339 330 314 300 288 275 262
281 282 282 283 284 283 283 284 286 285 285 286 287 287 288 292 299 304 301 298 302 304 304 308 310 303 296 293 293 294 295 296 295 295 295 294 296 299 301 301 302 305 309 312 316 317 316 317 320 324 325 326 328 330 331 335 337 335 335 335 336 338 340 341 343 345 349 356 1 5 12 18 21 22 20 12 359 343 335 331 330 330 329 321 309 298 287 276
280 280 280 281 281 281 281 283 283 283 283 284 285 286 287 290 297 299 297 298 302 302 300 302 306 307 301 292 290 291 291 292 292 292 292 292 293 295 298 298 299 301 304 308 310 311 311 311 314 320 322 323 327 328 329 332 334 333 332 332 332 333 334 334 336 337 339 344 350 355 1 9 14 17 18 16 11 1 348 337 330 326 323 319 313 304 295 286
279 279 280 280 279 279 280 280 281 281 281 282 283 284 285 290 294 294 294 297 300 301 300 296 298 306 306 295 288 288 288 288 289 289 289 290 290 291 294 296 296 297 300 303 305 306 307 307 309 315 317 319 324 326 328 330 331 331 331 331 330 330 330 330 330 332 333 333 339 345 350 357 5 8 10 10 10 10 4 352 338 329 322 317 311 305 299 293
278 278 278 278 278 278 279 279 280 280 280 281 281 283 285 289 289 288 290 294 297 298 298 296 295 299 305 300 289 284 286 286 286 287 287 287 287 287 291 292 292 293 295 298 301 301 302 304 306 310 313 316 319 321 325 329 330 329 329 329 329 329 329 328 327 329 330 329 331 337 341 345 354 0 2 2 3 6 7 3 353 338 326 319 312 304 297 293
276 276 276 276 276 276 277 279 279 279 279 279 280 282 285 286 285 285 287 290 292 294 295 296 296 295 299 301 291 282 282 283 283 284 284 283 284 286 287 289 289 290 292 295 297 296 297 300 303 306 310 312 314 316 319 325 327 327 327 327 329 330 329 328 326 325 327 326 326 330 333 336 342 351 355 355 355 357 360 1 359 350 334 322 314 306 296 290
274 274 274 275 275 276 276 276 277 277 278 278 279 281 283 283 284 285 285 286 288 290 293 295 296 294 293 299 296 283 277 280 281 281 281 280 281 283 285 286 287 287 288 292 292 291 293 296 298 301 304 307 309 310 314 319 323 324 324 325 328 330 330 329 327 323 324 324 322 324 326 327 332 342 348 348 348 350 353 355 358 355 345 331 319 311 301 291
273 273 273 273 274 274 275 274 274 275 275 276 279 281 281 282 282 282 283 284 286 289 292 294 294 292 290 294 297 287 275 275 279 278 278 278 278 280 282 284 285 284 285 288 289 288 290 292 294 296 300 303 304 304 308 314 317 319 321 322 325 328 329 329 327 323 322 321 318 320 321 319 323 333 340 341 342 345 348 350 353 354 349 340 327 315 307 295
272 272 272 272 272 272 273 273 273 273 274 276 278 279 279 280 280 280 281 283 286 288 290 292 292 291 289 290 294 290 276 271 274 275 276 276 276 277 279 281 282 282 284 286 288 287 286 288 290 293 296 299 298 298 302 306 310 313 315 318 320 322 325 328 326 322 320 319 316 316 316 313 316 326 331 334 337 341 345 347 348 348 346 343 334 321 310 301
269 270 270 271 271 271 271 271 272 272 274 275 276 276 277 278 279 280 281 283 285 286 287 289 289 289 289 288 291 290 279 269 269 271 272 274 274 275 277 279 280 280 282 285 285 285 284 284 286 290 293 295 294 295 296 299 303 305 308 312 313 315 319 323 324 321 318 317 313 312 312 308 309 318 325 326 331 336 341 345 345 343 341 341 339 329 316 306
270 270 270 271 271 271 272 272 273 274 274 275 275 275 277 278 278 279 281 282 283 284 285 286 287 288 288 286 288 289 280 269 265 266 268 270 272 272 273 275 276 276 280 283 284 283 282 281 283 287 289 291 292 292 292 294 297 300 303 306 307 310 313 316 319 318 315 315 310 308 311 306 304 312 320 321 324 329 336 342 342 339 337 338 339 335 324 312
271 271 271 271 271 272 272 272 273 274 275 275 274 274 274 275 276 276 278 279 280 282 283 284 285 285 285 284 285 287 282 270 264 264 265 266 268 269 270 271 273 274 276 280 281 280 281 280 281 283 284 287 289 288 288 290 292 296 300 301 302 305 308 311 314 312 312 313 305 305 312 305 302 310 316 316 319 323 330 338 338 336 335 336 337 337 332 320
272 272 272 271 271 270 270 270 270 271 272 272 272 271 271 271 272 273 274 275 277 279 280 281 282 282 282 283 284 286 281 270 264 264 264 263 264 266 267 268 270 271 272 276 278 277 278 279 279 279 281 284 286 286 286 287 289 293 296 298 300 302 304 307 308 308 310 308 301 305 309 302 303 313 314 312 314 318 325 333 333 332 333 333 334 336 335 327
272 272 272 271 270 270 270 270 270 269 269 270 269 269 269 269 270 270 271 272 274 275 276 277 278 279 279 280 281 282 279 270 264 263 262 261 261 262 264 265 267 267 269 272 274 274 275 276 278 278 278 280 283 284 285 287 289 291 292 294 297 299 301 302 304 305 306 302 301 306 305 299 304 312 312 311 312 314 321 326 327 328 329 330 332 333 334 331
270 269 269 269 268 268 268 268 268 268 267 268 268 268 268 268 269 269 270 270 271 272 273 274 274 275 275 277 278 279 276 268 263 262 261 261 260 259 261 262 264 265 266 268 271 272 272 274 276 277 277 278 279 281 284 286 287 288 290 292 294 297 298 299 301 301 300 299 303 305 302 301 304 307 308 309 310 312 317 318 320 323 325 327 328 329 332 332
267 267 267 266 266 266 266 266 266 266 266 266 266 266 266 267 267 267 268 269 269 270 270 271 271 271 272 273 274 276 273 265 262 261 260 260 259 258 258 259 261 263 264 266 267 269 271 272 274 275 276 277 277 280 282 284 285 287 288 290 292 294 296 297 298 297 295 298 303 302 300 302 304 304 305 307 309 312 312 311 313 317 320 324 325 326 328 331
266 265 265 265 265 265 264 264 264 265 265 265 265 264 264 265 265 265 266 266 267 268 268 268 269 269 270 270 269 269 267 261 259 258 258 258 259 258 257 257 258 260 262 264 266 267 269 270 272 273 274 276 277 279 281 282 284 286 286 288 290 292 294 295 294 293 293 297 299 297 298 302 302 301 304 308 310 309 307 307 309 310 316 322 324 323 325 329
264 264 264 263 263 263 263 263 263 263 264 264 263 263 262 263 263 264 265 265 265 266 266 267 268 268 268 266 264 263 260 256 255 256 256 257 257 257 257 256 256 257 259 261 264 266 267 269 270 271 273 275 276 277 279 280 282 284 285 286 288 290 291 291 290 291 292 294 294 294 297 300 299 299 304 309 309 306 304 305 305 307 313 320 322 322 323 325
264 263 263 262 262 262 262 262 262 262 262 262 261 261 261 261 261 262 263 264 264 264 265 266 266 266 265 263 262 260 256 252 252 253 254 255 256 256 256 256 256 256 257 259 262 264 267 269 271 272 274 275 275 275 276 278 280 282 283 284 286 288 287 286 288 289 290 292 291 292 297 299 296 298 303 306 305 304 304 303 303 306 311 316 320 321 320 321
265 264 263 262 262 262 262 261 261 260 260 260 260 260 260 259 259 259 260 261 262 262 263 263 263 263 262 260 258 256 252 248 248 249 250 252 254 255 256 257 257 257 257 258 260 263 267 270 272 273 273 274 272 272 273 276 278 280 282 284 285 284 283 284 286 287 288 290 290 293 299 298 296 297 300 301 302 304 303 301 302 305 308 314 319 319 317 318
265 265 264 262 262 261 261 260 259 259 258 258 258 258 258 258 258 257 257 257 258 259 259 259 259 258 257 254 252 251 248 245 246 247 248 250 252 253 254 255 255 255 255 256 259 261 265 268 269 269 270 271 269 270 271 273 275 279 282 283 282 281 281 283 284 285 286 288 290 294 298 297 296 298 298 298 300 302 302 301 300 302 306 313 316 315 315 317
265 264 263 262 261 260 260 259 258 258 257 257 257 256 256 255 255 254 254 254 254 255 256 255 255 254 252 249 247 246 244 243 245 247 248 248 250 251 252 253 253 253 255 256 258 259 260 263 265 266 267 268 267 268 269 271 274 279 281 279 278 280 281 282 282 283 285 286 289 292 295 296 297 297 296 297 298 299 300 300 298 300 305 310 312 312 314 315
Height
10807 10806 10804 10803 10801 10800 10798 10797 10795 10794 10792 10790 10788 10787 10785 10783 10781 10779 10776 10774 10772 10770 10767 10764 10762 10759 10756 10753 10750 10748 10744 10741 10738 10734 10730 10727 10722 10717 10712 10708 10704 10699 10695 10691 10687 10683 10680 10676 10673 10670 10667 10664 10661 10659 10656 10654 10653 10653 10654 10654 10654 10655 10656 10657 10660 10663 10665 10669 10671 10674 10677 10679 10680 10683 10685 10690 10695 10698 10702 10705 10708 10710 10712 10714 10716 10718 10719 10722
10807 10806 10804 10803 10801 10800 10798 10797 10795 10794 10792 10790 10788 10787 10785 10783 10781 10779 10777 10774 10772 10770 10768 10765 10763 10760 10757 10754 10752 10749 10746 10742 10739 10735 10732 10728 10724 10719 10714 10709 10705 10701 10696 10692 10688 10683 10680 10677 10674 10671 10668 10665 10662 10659 10657 10655 10654 10653 10653 10653 10653 10654 10654 10655 10658 10659 10663 10667 10669 10672 10675 10677 10680 10682 10684 10689 10693 10699 10703 10705 10707 10708 10710 10712 10714 10716 10718 10721
10807 10805 10804 10802 10801 10800 10798 10797 10795 10793 10792 10790 10788 10787 10785 10783 10781 10779 10777 10775 10772 10771 10768 10766 10764 10761 10759 10756 10753 10750 10747 10744 10740 10737 10733 10729 10725 10721 10716 10711 10707 10703 10698 10693 10689 10684 10681 10677 10675 10672 10668 10665 10662 10660 10658 10656 10654 10653 10653 10653 10653 10653 10654 10655 10656 10657 10661 10665 10667 10669 10673 10675 10678 10680 10683 10687 10691 10698 10703 10704 10705 10706 10708 10710 10713 10715 10717 10720
10807 10805 10804 10802 10801 10800 10798 10797 10795 10793 10792 10790 10788 10786 10785 10783 10781 10779 10777 10775 10772 10771 10769 10767 10764 10762 10759 10757 10754 10751 10748 10745 10742 10738 10734 10731 10727 10723 10718 10713 10709 10704 10700 10695 10690 10686 10682 10679 10676 10673 10669 10666 10663 10660 10658 10656 10655 10654 10653 10653 10653 10654 10654 10655 10656 10658 10660 10663 10665 10669 10672 10675 10677 10678 10681 10685 10689 10695 10699 10700 10701 10703 10705 10708 10711 10713 10716 10719
10807 10805 10804 10802 10800 10799 10798 10797 10795 10793 10792 10790 10788 10786 10784 10783 10781 10779 10777 10775 10773 10771 10769 10767 10764 10762 10760 10758 10755 10752 10749 10746 10743 10739 10736 10732 10728 10725 10720 10715 10711 10707 10702 10697 10693 10688 10684 10680 10677 10674 10671 10667 10664 10662 10659 10657 10656 10655 10654 10654 10654 10654 10655 10656 10656 10658 10659 10662 10665 10669 10672 10674 10675 10677 10680 10683 10687 10691 10694 10696 10698 10700 10703 10706 10709 10712 10714 10718
10806 10805 10803 10802 10800 10799 10797 10796 10795 10794 10792 10790 10788 10786 10784 10782 10780 10779 10777 10775 10773 10771 10769 10767 10765 10763 10760 10758 10756 10753 10750 10747 10744 10740 10737 10733 10730 10727 10723 10718 10713 10709 10704 10700 10695 10691 10687 10683 10679 10675 10672 10669 10665 10663 10661 10658 10657 10656 10655 10654 10654 10654 10655 10656 10657 10658 10659 10661 10664 10667 10670 10672 10673 10676 10678 10681 10684 10687 10689 10692 10696 10698 10701 10704 10707 10710 10713 10716
10805 10804 10803 10802 10800 10799 10797 10796 10795 10793 10792 10790 10788 10786 10784 10782 10780 10778 10777 10775 10773 10771 10769 10767 10765 10763 10761 10759 10756 10754 10751 10748 10745 10742 10738 10735 10731 10728 10725 10720 10716 10711 10707 10702 10698 10694 10689 10685 10681 10677 10674 10670 10667 10665 10662 10660 10658 10657 10656 10655 10654 10654 10655 10656 10657 10658 10660 10662 10664 10667 10669 10671 10673 10676 10677 10679 10681 10684 10687 10690 10693 10697 10700 10703 10706 10709 10711 10714
10804 10803 10802 10801 10799 10798 10797 10795 10794 10793 10791 10790 10788 10786 10784 10781 10779 10778 10776 10775 10773 10771 10769 10767 10765 10763 10761 10759 10756 10754 10751 10748 10745 10743 10739 10736 10733 10730 10727 10723 10718 10714 10710 10705 10701 10696 10692 10688 10684 10680 10676 10673 10670 10667 10664 10662 10660 10658 10657 10656 10656 10655 10656 10657 10658 10659 10661 10663 10665 10667 10669 10672 10674 10675 10677 10678 10680 10683 10685 10688 10692 10695 10698 10702 10705 10707 10709 10712
10803 10802 10800 10799 10798 10797 10796 10795 10793 10792 10790 10789 10788 10786 10784 10781 10779 10777 10775 10774 10772 10771 10769 10767 10765 10763 10761 10759 10756 10754 10751 10749 10746 10743 10741 10737 10734 10731 10728 10725 10720 10716 10712 10708 10704 10699 10694 10690 10686 10682 10678 10675 10672 10669 10667 10664 10662 10661 10659 10658 10657 10657 10657 10658 10660 10661 10662 10664 10666 10668 10670 10672 10674 10675 10676 10677 10679 10681 10684 10687 10690 10693 10697 10700 10703 10706 10708 10711
10802 10801 10799 10798 10796 10795 10794 10793 10792 10791 10789 10788 10787 10785 10783 10781 10779 10777 10775 10773 10772 10770 10768 10766 10765 10763 10761 10759 10756 10754 10752 10749 10747 10744 10742 10739 10736 10733 10730 10726 10722 10718 10715 10711 10706 10701 10697 10693 10689 10685 10681 10678 10674 10672 10669 10667 10665 10663 10661 10660 10659 10659 10659 10660 10661 10662 10664 10665 10667 10668 10671 10673 10674 10674 10675 10676 10678 10681 10683 10686 10689 10692 10695 10699 10702 10704 10707 10709
10800 10799 10798 10797 10795 10793 10792 10792 10791 10790 10788 10787 10785 10784 10782 10780 10779 10777 10775 10773 10771 10770 10768 10766 10764 10762 10761 10759 10757 10754 10752 10750 10748 10745 10742 10740 10737 10734 10731 10728 10724 10720 10716 10713 10708 10704 10700 10696 10692 10687 10683 10680 10677 10674 10672 10670 10668 10666 10664 10663 10662 10662 10662 10662 10663 10664 10666 10667 10668 10670 10671 10672 10673 10674 10675 10676 10678 10680 10683 10685 10688 10691 10694 10698 10701 10703 10706 10708
10799 10798 10797 10795 10794 10792 10790 10790 10789 10788 10787 10785 10784 10782 10781 10779 10778 10776 10774 10772 10771 10769 10767 10765 10764 10762 10760 10758 10757 10755 10753 10751 10748 10746 10743 10741 10738 10735 10732 10729 10726 10722 10718 10714 10710 10706 10702 10698 10694 10690 10686 10682 10679 10676 10674 10672 10670 10669 10667 10665 10665 10664 10664 10664 10665 10665 10667 10668 10669 10671 10672 10673 10674 10675 10675 10677 10679 10681 10683 10686 10688 10691 10694 10697 10700 10703 10705 10706
10797 10796 10795 10794 10793 10791 10788 10787 10787 10787 10785 10783 10782 10781 10779 10778 10776 10775 10773 10771 10770 10768 10767 10765 10763 10761 10760 10758 10757 10755 10753 10751 10749 10746 10744 10741 10739 10736 10733 10730 10727 10723 10719 10716 10712 10708 10704 10700 10696 10693 10689 10686 10683 10680 10677 10675 10673 10671 10670 10668 10667 10666 10667 10667 10667 10667 10668 10668 10669 10671 10673 10674 10676 10675 10675 10677 10679 10681 10683 10686 10689 10691 10695 10697 10700 10702 10704 10706
10795 10794 10793 10792 10791 10790 10788 10785 10785 10785 10784 10782 10781 10779 10778 10776 10775 10774 10772 10770 10768 10767 10766 10764 10763 10761 10760 10758 10757 10755 10753 10751 10749 10747 10744 10742 10739 10737 10734 10731 10728 10725 10721 10717 10714 10711 10707 10703 10699 10696 10693 10690 10687 10684 10681 10679 10676 10674 10672 10671 10670 10669 10670 10670 10669 10669 10669 10669 10670 10671 10673 10676 10677 10676 10676 10678 10679 10682 10684 10686 10689 10691 10694 10696 10698 10701 10703 10705
10792 10792 10791 10790 10790 10789 10787 10785 10783 10783 10782 10781 10779 10778 10776 10775 10774 10772 10771 10769 10767 10766 10764 10763 10762 10761 10759 10758 10756 10755 10753 10751 10749 10747 10745 10742 10740 10737 10735 10732 10729 10726 10723 10719 10716 10713 10710 10706 10703 10700 10697 10694 10691 10688 10685 10682 10679 10677 10675 10673 10672 10672 10672 10672 10670 10670 10671 10671 10671 10672 10673 10676 10678 10676 10677 10678 10680 10682 10685 10687 10689 10691 10693 10695 10697 10699 10701 10703
10790 10789 10789 10788 10787 10787 10786 10784 10781 10780 10780 10779 10778 10776 10775 10774 10772 10771 10770 10768 10766 10764 10763 10762 10761 10760 10759 10757 10756 10754 10753 10751 10749 10747 10745 10743 10740 10738 10735 10733 10730 10727 10724 10721 10718 10715 10712 10709 10706 10703 10700 10697 10694 10691 10689 10686 10683 10681 10678 10677 10676 10674 10673 10673 10672 10672 10672 10672 10672 10673 10674 10676 10677 10676 10677 10679 10681 10683 10685 10687 10689 10690 10692 10693 10695 10697 10699 10702
10787 10786 10786 10785 10785 10784 10784 10782 10780 10779 10778 10777 10776 10774 10773 10772 10771 10770 10768 10767 10765 10763 10762 10761 10759 10758 10757 10756 10755 10753 10752 10751 10749 10747 10745 10743 10741 10738 10736 10734 10731 10728 10725 10723 10720 10717 10714 10711 10709 10706 10703 10700 10697 10695 10692 10689 10687 10685 10682 10680 10678 10676 10675 10674 10674 10674 10673 10673 10673 10674 10675 10676 10677 10677 10678 10680 10681 10683 10685 10687 10688 10689 10691 10692 10694 10696 10698 10700
10784 10784 10783 10783 10782 10781 10781 10780 10779 10777 10776 10775 10774 10773 10771 10770 10769 10768 10767 10765 10764 10763 10761 10759 10758 10757 10756 10755 10754 10753 10751 10750 10748 10747 10745 10743 10741 10739 10736 10734 10732 10729 10726 10724 10721 10718 10716 10713 10711 10708 10706 10703 10700 10698 10695 10693 10691 10689 10686 10683 10681 10679 10677 10676 10676 10675 10675 10674 10674 10675 10675 10676 10677 10678 10679 10680 10681 10683 10684 10686 10687 10689 10690 10691 10693 10694 10696 10698
10782 10781 10781 10780 10779 10779 10778 10777 10776 10775 10773 10773 10772 10771 10770 10768 10767 10766 10765 10764 10763 10761 10760 10758 10757 10756 10754 10753 10753 10752 10751 10749 10748 10746 10744 10743 10741 10739 10737 10734 10732 10730 10727 10724 10722 10719 10717 10715 10713 10711 10708 10706 10703 10701 10699 10697 10694 10692 10689 10687 10684 10682 10680 10679 10677 10676 10676 10675 10675 10675 10676 10676 10677 10678 10679 10680 10681 10682 10684 10685 10686 10688 10689 10690 10692 10693 10695 10696
10779 10779 10778 10777 10777 10776 10775 10774 10774 10773 10771 10770 10769 10768 10767 10766 10765 10764 10764 10763 10761 10760 10759 10757 10756 10754 10753 10752 10751 10750 10749 10748 10747 10745 10744 10742 10741 10739 10737 10735 10732 10730 10728 10725 10722 10720 10718 10716 10714 10712 10710 10708 10705 10703 10701 10699 10697 10694 10692 10689 10687 10684 10683 10681 10680 10678 10677 10677 10676 10676 10676 10676 10677 10678 10678 10679 10681 10682 10683 10684 10685 10686 10688 10689 10690 10691 10693 10695
10777 10776 10775 10774 10773 10773 10772 10772 10771 10770 10769 10768 10767 10765 10764 10764 10763 10763 10762 10761 10760 10758 10757 10756 10755 10753 10751 10750 10749 10749 10748 10747 10746 10744 10743 10742 10740 10738 10736 10734 10732 10730 10728 10725 10722 10720 10718 10717 10715 10713 10712 10710 10707 10705 10703 10701 10699 10696 10694 10691 10689 10687 10685 10683 10681 10680 10679 10678 10677 10677 10677 10677 10677 10678 10678 10679 10680 10681 10682 10683 10684 10685 10686 10687 10688 10689 10691 10693
10774 10773 10772 10771 10770 10770 10769 10769 10768 10768 10767 10766 10765 10763 10762 10761 10760 10760 10760 10759 10758 10757 10756 10755 10754 10752 10750 10749 10748 10747 10746 10746 10744 10743 10742 10740 10739 10738 10736 10734 10732 10729 10727 10725 10723 10720 10719 10717 10716 10714 10713 10711 10709 10707 10705 10702 10700 10698 10696 10693 10691 10689 10687 10685 10683 10681 10680 10679 10678 10677 10677 10677 10677 10677 10678 10678 10679 10679 10680 10681 10682 10683 10684 10685 10686 10688 10689 10691
10771 10770 10769 10768 10767 10767 10766 10766 10765 10764 10764 10763 10763 10761 10760 10759 10758 10757 10757 10757 10756 10755 10754 10753 10752 10751 10749 10748 10746 10745 10744 10744 10743 10741 10740 10739 10738 10737 10735 10733 10731 10729 10726 10724 10723 10721 10719 10717 10716 10715 10713 10712 10710 10708 10706 10704 10701 10699 10697 10695 10692 10691 10689 10687 10685 10683 10682 10680 10679 10679 10678 10678 10677 10677 10677 10677 10678 10678 10679 10679 10680 10681 10682 10684 10685 10686 10687 10689
10767 10766 10766 10765 10764 10763 10763 10763 10762 10761 10760 10760 10759 10759 10758 10757 10755 10754 10754 10755 10754 10753 10752 10751 10751 10750 10748 10747 10745 10744 10743 10742 10741 10740 10739 10738 10736 10735 10734 10732 10730 10728 10726 10724 10722 10721 10719 10717 10715 10714 10713 10712 10710 10708 10706 10704 10702 10700 10698 10696 10694 10692 10690 10688 10686 10685 10683 10682 10681 10680 10679 10678 10678 10677 10677 10676 10676 10676 10677 10677 10678 10679 10680 10681 10682 10683 10684 10686
10763 10763 10762 10761 10761 10760 10759 10759 10759 10758 10757 10756 10756 10756 10755 10754 10753 10751 10751 10751 10751 10750 10749 10749 10748 10748 10747 10745 10744 10742 10741 10740 10739 10738 10737 10736 10735 10733 10732 10731 10730 10728 10726 10724 10722 10720 10718 10716 10715 10713 10713 10712 10710 10708 10706 10705 10703 10701 10699 10697 10695 10693 10691 10689 10687 10685 10684 10682 10681 10680 10679 10678 10677 10676 10676 10676 10675 10675 10675 10675 10675 10676 10677 10678 10680 10681 10681 10682
10759 10758 10758 10757 10756 10756 10756 10755 10755 10755 10753 10753 10752 10752 10752 10751 10750 10749 10748 10747 10747 10746 10746 10746 10745 10745 10744 10744 10742 10741 10739 10738 10737 10736 10735 10734 10733 10732 10731 10730 10729 10727 10725 10723 10721 10720 10718 10716 10714 10713 10711 10710 10709 10707 10706 10704 10703 10701 10699 10697 10695 10693 10691 10689 10687 10685 10683 10682 10681 10680 10679 10677 10676 10675 10674 10674 10673 10673 10673 10673 10674 10674 10675 10675 10677 10678 10678 10679
10753 10752 10752 10752 10751 10751 10751 10750 10750 10751 10750 10749 10749 10749 10748 10748 10747 10747 10745 10744 10743 10742 10743 10742 10742 10741 10741 10741 10740 10739 10738 10736 10735 10734 10733 10732 10732 10731 10730 10728 10728 10726 10724 10722 10720 10719 10717 10715 10714 10712 10710 10709 10708 10706 10705 10704 10702 10701 10699 10697 10695 10694 10692 10690 10688 10686 10684 10682 10680 10679 10678 10677 10675 10674 10673 10672 10671 10671 10671 10671 10671 10672 10672 10673 10674 10675 10675 10676
10747 10746 10746 10746 10745 10745 10745 10745 10745 10746 10746 10746 10745 10745 10744 10744 10744 10743 10743 10742 10740 10739 10739 10739 10738 10737 10737 10737 10737 10737 10736 10734 10733 10732 10731 10730 10730 10729 10728 10727 10726 10725 10723 10721 10719 10718 10716 10714 10713 10711 10709 10708 10707 10705 10703 10702 10701 10700 10699 10697 10696 10694 10692 10690 10688 10686 10684 10682 10681 10679 10678 10677 10675 10674 10672 10671 10671 10670 10669 10669 10669 10669 10670 10670 10671 10672 10672 10672
10741 10741 10739 10740 10740 10738 10738 10739 10740 10740 10741 10741 10741 10741 10740 10740 10740 10739 10739 10739 10737 10736 10735 10734 10734 10734 10733 10733 10734 10734 10733 10732 10730 10729 10728 10727 10727 10727 10726 10725 10724 10723 10721 10720 10718 10716 10715 10713 10712 10711 10709 10707 10705 10704 10702 10701 10699 10698 10697 10696 10695 10694 10692 10690 10688 10687 10685 10683 10681 10679 10677 10676 10675 10674 10672 10671 10670 10670 10669 10668 10668 10667 10667 10667 10668 10669 10669 10669
10734 10734 10733 10733 10733 10732 10731 10732 10733 10734 10734 10735 10736 10736 10736 10736 10735 10735 10735 10734 10733 10733 10731 10730 10730 10730 10729 10729 10729 10730 10730 10729 10727 10726 10725 10724 10724 10724 10724 10722 10721 10720 10719 10717 10716 10714 10713 10712 10711 10709 10708 10706 10704 10703 10701 10700 10698 10697 10696 10695 10694 10693 10691 10689 10688 10686 10685 10683 10681 10679 10678 10676 10675 10674 10672 10671 10670 10669 10668 10667 10667 10666 10665 10665 10665 10665 10666 10666
10726 10727 10727 10725 10725 10725 10724 10725 10727 10727 10728 10729 10730 10730 10731 10731 10731 10731 10730 10728 10728 10729 10727 10726 10726 10725 10725 10725 10725 10725 10726 10725 10724 10722 10721 10721 10720 10721 10720 10719 10718 10717 10716 10715 10713 10712 10710 10710 10709 10708 10707 10705 10703 10701 10700 10699 10697 10696 10694 10693 10692 10691 10690 10688 10687 10686 10684 10682 10681 10679 10678 10676 10675 10673 10672 10671 10670 10668 10667 10666 10666 10665 10664 10663 10662 10662 10662 10662
10717 10719 10720 10718 10717 10716 10716 10718 10720 10720 10721 10721 10723 10724 10724 10725 10727 10727 10723 10721 10723 10725 10722 10721 10721 10721 10721 10720 10720 10720 10721 10721 10721 10719 10718 10717 10716 10717 10717 10716 10715 10714 10713 10711 10710 10709 10708 10707 10706 10706 10705 10704 10702 10700 10698 10697 10696 10694 10693 10691 10690 10689 10688 10687 10686 10684 10683 10681 10680 10679 10677 10676 10675 10673 10672 10670 10669 10668 10666 10665 10665 10664 10662 10661 10660 10660 10659 10659
10709 10710 10711 10710 10708 10705 10707 10711 10711 10712 10713 10713 10715 10718 10718 10720 10723 10721 10715 10714 10717 10719 10717 10716 10716 10716 10716 10716 10716 10716 10716 10716 10716 10715 10714 10713 10712 10712 10712 10712 10711 10710 10709 10708 10707 10706 10705 10704 10704 10703 10702 10701 10700 10698 10697 10695 10694 10692 10691 10689 10688 10687 10686 10685 10683 10682 10681 10679 10678 10677 10676 10675 10674 10673 10671 10670 10668 10667 10665 10664 10663 10662 10661 10660 10659 10658 10657 10656
10700 10702 10702 10702 10700 10696 10697 10702 10703 10703 10704 10705 10706 10709 10712 10716 10718 10713 10708 10708 10710 10711 10712 10711 10711 10711 10711 10711 10711 10711 10711 10711 10711 10711 10711 10709 10708 10708 10708 10709 10707 10706 10706 10705 10703 10703 10702 10701 10701 10700 10700 10698 10698 10696 10695 10693 10692 10690 10689 10688 10686 10685 10684 10683 10681 10680 10679 10677 10676 10675 10674 10673 10673 10672 10670 10668 10667 10665 10664 10663 10661 10660 10659 10658 10657 10655 10654 10653
10690 10693 10693 10692 10690 10687 10687 10692 10694 10693 10695 10696 10697 10700 10706 10711 10710 10706 10703 10701 10702 10704 10705 10705 10705 10706 10706 10706 10706 10705 10705 10706 10706 10706 10706 10705 10703 10703 10704 10705 10704 10702 10702 10701 10700 10699 10698 10698 10697 10697 10697 10696 10695 10694 10692 10691 10690 10688 10687 10686 10684 10683 10682 10681 10679 10678 10676 10675 10673 10672 10672 10671 10670 10670 10668 10666 10665 10663 10661 10660 10659 10658 10657 10655 10654 10653 10651 10650
10680 10682 10683 10682 10679 10678 10679 10683 10684 10683 10684 10686 10688 10694 10700 10702 10699 10698 10697 10695 10695 10696 10696 10698 10699 10700 10700 10701 10700 10700 10700 10700 10700 10701 10702 10700 10699 10698 10698 10699 10700 10699 10698 10697 10696 10694 10694 10694 10694 10693 10693 10692 10692 10691 10689 10689 10688 10686 10685 10684 10683 10681 10680 10679 10678 10676 10674 10673 10670 10669 10668 10668 10667 10667 10666 10664 10662 10660 10659 10657 10656 10655 10653 10652 10651 10649 10648 10646
10669 10670 10672 10671 10669 10668 10671 10673 10673 10673 10673 10674 10680 10688 10692 10691 10690 10688 10688 10687 10687 10687 10688 10690 10692 10693 10693 10694 10694 10694 10694 10695 10695 10696 10696 10695 10695 10693 10692 10693 10695 10695 10694 10693 10692 10690 10689 10690 10690 10689 10689 10689 10688 10688 10687 10686 10685 10684 10682 10681 10680 10679 10678 10676 10676 10674 10672 10671 10669 10666 10665 10664 10665 10665 10664 10662 10660 10658 10656 10654 10653 10651 10650 10648 10647 10645 10644 10643
10658 10658 10660 10661 10660 10659 10659 10660 10662 10663 10661 10663 10672 10679 10680 10681 10681 10679 10677 10678 10678 10679 10680 10682 10684 10686 10686 10687 10688 10688 10688 10690 10691 10690 10690 10690 10690 10689 10687 10687 10689 10690 10690 10689 10688 10686 10684 10685 10685 10685 10685 10685 10684 10684 10683 10683 10682 10681 10680 10678 10677 10677 10676 10674 10673 10672 10670 10669 10667 10665 10661 10659 10661 10662 10661 10660 10658 10656 10654 10651 10649 10647 10645 10644 10643 10641 10640 10638
10647 10647 10648 10649 10650 10649 10647 10646 10649 10651 10650 10656 10664 10668 10668 10670 10671 10669 10668 10668 10669 10670 10673 10675 10675 10677 10679 10679 10680 10681 10681 10683 10685 10684 10684 10685 10685 10684 10682 10681 10682 10683 10684 10685 10684 10682 10680 10679 10680 10680 10680 10681 10680 10680 10680 10679 10679 10678 10677 10676 10674 10673 10673 10672 10670 10669 10667 10666 10665 10663 10660 10655 10655 10658 10657 10655 10655 10653 10651 10649 10646 10644 10642 10640 10639 10637 10635 10634
10636 10636 10637 10637 10636 10637 10637 10634 10635 10638 10641 10648 10654 10655 10657 10660 10660 10659 10658 10659 10661 10662 10664 10667 10667 10669 10671 10671 10672 10674 10674 10676 10678 10678 10678 10679 10679 10679 10678 10677 10676 10676 10678 10680 10680 10678 10677 10675 10675 10675 10675 10675 10676 10676 10676 10675 10675 10674 10674 10673 10672 10670 10669 10669 10668 10666 10664 10663 10661 10660 10659 10653 10650 10653 10653 10651 10651 10649 10648 10646 10644 10642 10640 10637 10635 10632 10631 10629
10623 10623 10624 10624 10621 10622 10624 10622 10622 10626 10631 10638 10642 10643 10647 10650 10650 10650 10649 10649 10651 10653 10655 10658 10659 10660 10663 10663 10665 10666 10667 10668 10670 10671 10672 10673 10673 10673 10673 10672 10671 10670 10670 10673 10674 10673 10673 10671 10670 10671 10670 10670 10671 10671 10670 10671 10671 10670 10670 10669 10668 10667 10666 10665 10665 10663 10661 10660 10658 10656 10656 10651 10646 10649 10650 10647 10646 10646 10644 10643 10641 10639 10637 10634 10631 10629 10626 10624
10609 10609 10610 10610 10607 10607 10610 10610 10611 10615 10619 10625 10631 10633 10637 10639 10639 10640 10640 10639 10642 10644 10646 10649 10651 10652 10654 10655 10656 10658 10659 10661 10662 10664 10666 10667 10666 10666 10667 10667 10666 10665 10664 10666 10667 10667 10667 10667 10666 10666 10666 10666 10666 10666 10665 10665 10665 10665 10665 10664 10663 10662 10662 10661 10661 10660 10658 10657 10654 10652 10653 10649 10643 10645 10646 10643 10641 10641 10640 10639 10636 10634 10632 10630 10628 10626 10623 10620
10594 10594 10595 10595 10594 10593 10594 10597 10601 10605 10607 10612 10617 10620 10624 10627 10629 10630 10631 10631 10632 10635 10637 10639 10641 10643 10645 10646 10647 10649 10651 10652 10655 10656 10657 10659 10659 10659 10661 10661 10661 10660 10658 10659 10660 10660 10661 10662 10662 10661 10661 10661 10661 10661 10660 10659 10659 10660 10660 10659 10658 10657 10657 10656 10656 10655 10654 10654 10650 10649 10650 10646 10641 10641 10642 10639 10637 10636 10636 10634 10631 10629 10627 10625 10623 10622 10620 10617
10578 10579 10579 10579 10579 10579 10579 10583 10589 10592 10594 10597 10601 10605 10610 10613 10617 10619 10620 10621 10623 10625 10627 10630 10632 10634 10636 10637 10638 10641 10643 10644 10646 10648 10648 10651 10652 10652 10653 10654 10655 10655 10653 10653 10654 10654 10655 10655 10656 10656 10656 10657 10657 10655 10655 10654 10654 10654 10654 10653 10653 10652 10651 10651 10651 10649 10649 10648 10646 10646 10646 10642 10639 10638 10637 10635 10633 10631 10631 10630 10627 10624 10622 10619 10618 10616 10615 10613
10562 10563 10563 10562 10563 10564 10566 10570 10574 10576 10579 10583 10585 10590 10595 10599 10604 10607 10607 10609 10612 10614 10617 10620 10623 10624 10626 10628 10629 10632 10635 10635 10637 10639 10640 10642 10643 10644 10646 10647 10648 10648 10648 10648 10648 10648 10649 10649 10649 10650 10650 10651 10651 10650 10650 10649 10648 10648 10649 10648 10647 10647 10646 10645 10645 10645 10643 10642 10641 10641 10640 10638 10636 10635 10633 10631 10630 10628 10627 10626 10623 10621 10618 10615 10613 10610 10608 10607
10543 10544 10545 10545 10544 10546 10550 10555 10558 10558 10563 10567 10569 10574 10579 10583 10590 10594 10594 10596 10599 10602 10606 10610 10613 10615 10617 10620 10621 10623 10626 10626 10627 10630 10632 10633 10634 10636 10638 10639 10640 10640 10641 10642 10641 10642 10643 10643 10643 10644 10643 10644 10644 10644 10645 10645 10643 10642 10642 10642 10641 10641 10641 10640 10640 10639 10637 10637 10637 10635 10634 10633 10632 10631 10629 10628 10627 10626 10624 10621 10620 10617 10614 10612 10609 10606 10603 10601
10523 10525 10526 10524 10523 10527 10533 10538 10540 10542 10546 10548 10550 10557 10563 10567 10573 10577 10580 10584 10587 10589 10592 10596 10602 10605 10608 10611 10612 10613 10617 10618 10619 10621 10623 10624 10626 10628 10629 10631 10632 10633 10634 10634 10635 10636 10636 10636 10637 10637 10637 10637 10637 10638 10639 10639 10638 10637 10636 10636 10635 10634 10635 10633 10633 10632 10630 10632 10633 10629 10628 10630 10627 10625 10624 10624 10623 10622 10619 10617 10615 10613 10610 10608 10605 10601 10598 10596
10500 10503 10504 10502 10501 10506 10513 10518 10520 10523 10526 10528 10531 10537 10545 10551 10556 10561 10565 10569 10571 10573 10577 10582 10589 10594 10598 10600 10601 10604 10607 10609 10611 10613 10615 10616 10617 10619 10620 10622 10624 10626 10626 10626 10627 10628 10628 10629 10630 10630 10630 10632 10631 10630 10631 10632 10632 10632 10631 10631 10630 10629 10629 10627 10626 10626 10625 10627 10628 10624 10624 10626 10623 10619 10619 10619 10618 10616 10614 10611 10608 10607 10606 10603 10600 10597 10592 10590
10475 10477 10480 10479 10479 10485 10492 10497 10499 10501 10505 10509 10511 10517 10526 10535 10542 10547 10549 10551 10553 10557 10563 10569 10576 10580 10584 10587 10589 10593 10597 10600 10603 10605 10606 10606 10609 10611 10612 10613 10616 10617 10618 10618 10619 10620 10620 10621 10623 10623 10623 10625 10624 10624 10625 10624 10625 10626 10626 10626 10625 10624 10622 10621 10621 10620 10619 10620 10620 10618 10620 10621 10617 10614 10614 10613 10612 10610 10608 10605 10602 10601 10600 10598 10596 10593 10588 10584
10450 10452 10454 10455 10458 10465 10472 10474 10478 10481 10485 10489 10492 10500 10509 10515 10524 10531 10533 10534 10537 10541 10548 10556 10562 10567 10570 10574 10577 10582 10588 10591 10593 10595 10596 10597 10600 10602 10604 10606 10607 10609 10610 10610 10612 10613 10612 10613 10615 10615 10614 10617 10617 10616 10617 10618 10618 10619 10620 10620 10620 10617 10615 10615 10615 10614 10613 10613 10612 10611 10614 10614 10609 10608 10608 10606 10605 10604 10602 10599 10596 10595 10594 10592 10590 10587 10583 10579
10426 10427 10429 10431 10437 10447 10450 10452 10456 10459 10465 10471 10476 10484 10491 10495 10506 10512 10512 10516 10521 10526 10534 10542 10547 10551 10556 10560 10565 10571 10577 10580 10581 10585 10587 10588 10591 10594 10595 10598 10599 10600 10601 10602 10604 10606 10605 10606 10608 10607 10606 10610 10609 10607 10609 10610 10611 10613 10615 10615 10612 10609 10608 10609 10609 10608 10607 10607 10606 10605 10607 10605 10602 10602 10601 10599 10598 10597 10596 10594 10592 10590 10589 10587 10585 10582 10577 10574
10403 10405 10408 10409 10417 10428 10430 10431 10434 10437 10448 10458 10459 10463 10470 10476 10486 10491 10490 10498 10508 10512 10520 10527 10532 10537 10542 10548 10554 10560 10565 10568 10570 10574 10577 10579 10582 10584 10586 10589 10590 10592 10593 10594 10596 10598 10598 10600 10601 10599 10599 10601 10601 10600 10601 10601 10604 10609 10610 10607 10604 10602 10603 10603 10602 10602 10601 10600 10601 10601 10600 10598 10596 10596 10594 10592 10591 10589 10588 10587 10586 10585 10584 10581 10579 10576 10573 10569